Tracking 34305 objects as of 7-Jun-2026
HD Live streaming from Space Station
objects crossing your sky now

STARLINK-34422

Track STARLINK-34422 now!
10-day predictions
STARLINK-34422 is classified as:


NORAD ID: 64415
Int'l Code: 2025-129D
Perigee: 576.6 km
Apogee: 581.8 km
Inclination: 70.0 °
Period: 96.1 minutes
Semi major axis: 6950 km
RCS: Unknown
Launch date: June 17, 2025
Source: United States (US)
Launch site: AIR FORCE WESTERN TEST RANGE (AFWTR)
Your satellite tracking list
Your tracking list is empty




NASA's NSSDC Master Catalog

Two Line Element Set (TLE):
1 64415U 25129D   26157.53557133  .00008797  00000-0  74409-3 0  9990
2 64415  70.0012 210.5205 0003734 262.5188  97.5547 14.98331077 54533
Source of the keplerian elements: AFSPC